Temperature
8 7 7 7 6 6 5 5 4 4 3 3 3 3 2 2 2 1 1 -0 -1 -1 -2 -2 -2 -2 -3 -3 -3 -3 -3 -3 -3 -2 -2 -1 -1 -1 -1 -1 -1 -1 -1
7 6 6 6 5 5 4 4 3 3 2 2 2 2 1 1 1 -0 -1 -2 -2 -2 -3 -3 -3 -3 -4 -4 -4 -4 -4 -4 -4 -4 -3 -3 -3 -2 -2 -2 -2 -2 -2
6 6 5 5 4 3 3 3 2 2 2 1 1 1 0 -0 -0 -1 -2 -3 -3 -3 -3 -4 -4 -4 -4 -4 -5 -5 -5 -5 -5 -5 -4 -4 -4 -3 -3 -3 -3 -3 -3
5 5 4 3 3 3 2 2 1 1 1 1 0 -0 -0 -1 -2 -3 -3 -4 -4 -4 -4 -5 -5 -5 -5 -5 -5 -5 -5 -5 -5 -5 -5 -5 -4 -4 -4 -4 -4 -4 -3
4 4 3 3 2 2 1 1 1 0 0 -0 -1 -1 -1 -2 -3 -3 -4 -5 -5 -5 -5 -5 -5 -6 -6 -6 -6 -6 -6 -6 -6 -5 -5 -5 -5 -5 -5 -5 -5 -4 -4
3 3 2 2 1 1 1 0 0 -0 -1 -1 -1 -2 -3 -3 -3 -4 -5 -6 -6 -6 -6 -6 -6 -6 -6 -6 -6 -6 -6 -6 -6 -6 -6 -6 -6 -6 -6 -6 -6 -5 -5
2 2 1 1 1 0 0 -0 -1 -1 -1 -2 -3 -3 -4 -4 -4 -5 -6 -7 -7 -7 -7 -7 -7 -7 -7 -7 -7 -7 -6 -6 -6 -7 -7 -7 -7 -7 -7 -7 -6 -6 -6
2 1 1 1 0 -0 -1 -1 -1 -2 -3 -3 -4 -4 -4 -5 -6 -6 -8 -8 -7 -7 -7 -7 -7 -7 -7 -7 -7 -7 -7 -7 -7 -7 -8 -8 -8 -8 -7 -7 -7 -7 -6
1 1 0 -0 -1 -1 -1 -2 -2 -3 -4 -4 -4 -5 -6 -6 -7 -8 -8 -8 -8 -7 -7 -7 -7 -7 -7 -7 -7 -7 -7 -7 -7 -8 -8 -8 -8 -8 -8 -8 -7 -7 -6
1 0 -0 -1 -1 -2 -2 -2 -3 -4 -4 -5 -5 -6 -7 -7 -8 -8 -9 -8 -8 -8 -8 -7 -8 -8 -8 -8 -8 -8 -8 -8 -9 -9 -9 -9 -9 -9 -9 -8 -8 -8 -7
0 -0 -1 -1 -2 -2 -3 -4 -4 -5 -5 -6 -6 -7 -7 -8 -8 -8 -9 -8 -8 -8 -8 -8 -8 -8 -8 -8 -8 -9 -9 -9 -9 -9 -10 -10 -10 -9 -9 -9 -9 -9 -8
-1 -1 -1 -2 -3 -3 -4 -4 -5 -5 -6 -6 -7 -7 -8 -8 -8 -9 -9 -9 -8 -8 -8 -8 -8 -9 -9 -9 -9 -10 -10 -10 -10 -10 -10 -10 -10 -10 -10 -10 -9 -9 -8
-1 -2 -2 -3 -3 -4 -4 -5 -6 -6 -7 -7 -8 -8 -8 -8 -9 -9 -9 -9 -9 -9 -9 -9 -9 -9 -9 -10 -10 -10 -10 -11 -11 -10 -10 -10 -10 -10 -10 -10 -9 -9 -8
-2 -2 -3 -3 -4 -4 -5 -6 -7 -7 -8 -8 -8 -8 -9 -9 -9 -9 -9 -9 -9 -9 -9 -9 -9 -10 -10 -11 -11 -11 -11 -11 -11 -11 -11 -11 -11 -10 -10 -10 -9 -9 -8
-3 -3 -3 -4 -4 -5 -6 -7 -7 -8 -8 -9 -9 -9 -10 -9 -9 -10 -9 -9 -9 -9 -9 -10 -10 -10 -11 -11 -11 -11 -11 -11 -11 -11 -11 -11 -11 -10 -10 -9 -9 -8 -8
-3 -4 -4 -5 -5 -6 -7 -7 -8 -9 -9 -9 -9 -10 -10 -10 -10 -10 -10 -10 -10 -10 -10 -11 -11 -11 -11 -11 -11 -11 -12 -11 -11 -11 -11 -11 -11 -10 -10 -9 -8 -8 -8
-4 -4 -5 -6 -6 -7 -8 -8 -9 -9 -9 -10 -10 -10 -10 -10 -10 -10 -10 -10 -10 -11 -11 -11 -11 -12 -12 -12 -12 -12 -12 -12 -12 -12 -11 -11 -11 -10 -9 -9 -8 -8 -8
-4 -5 -5 -6 -7 -8 -9 -9 -9 -9 -10 -10 -10 -10 -10 -11 -11 -11 -11 -11 -11 -11 -12 -12 -12 -12 -12 -12 -12 -12 -12 -12 -12 -12 -11 -11 -10 -10 -9 -9 -9 -9 -8
-5 -5 -6 -7 -8 -9 -9 -10 -10 -10 -10 -10 -10 -10 -10 -11 -11 -11 -11 -12 -12 -12 -12 -12 -12 -12 -13 -13 -13 -12 -12 -12 -12 -11 -11 -10 -10 -9 -9 -9 -9 -8 -8
-5 -6 -6 -7 -8 -9 -10 -10 -10 -10 -10 -10 -11 -11 -11 -12 -12 -12 -12 -12 -12 -12 -12 -13 -13 -13 -13 -13 -13 -12 -12 -11 -11 -10 -10 -10 -9 -9 -9 -8 -8 -8 -8
-6 -6 -7 -8 -9 -10 -11 -11 -11 -11 -11 -11 -11 -11 -12 -12 -12 -12 -13 -13 -13 -13 -13 -13 -13 -13 -13 -13 -12 -12 -11 -11 -10 -10 -10 -9 -9 -9 -8 -8 -8 -8 -8
-7 -7 -8 -9 -10 -11 -11 -11 -11 -11 -11 -12 -12 -12 -12 -13 -13 -13 -13 -13 -13 -13 -13 -13 -13 -12 -12 -12 -12 -12 -11 -10 -9 -9 -9 -9 -9 -8 -8 -7 -7 -7 -7
-7 -8 -10 -10 -11 -11 -11 -11 -11 -12 -12 -12 -13 -13 -13 -13 -13 -13 -13 -13 -13 -13 -13 -13 -12 -11 -11 -11 -11 -10 -10 -10 -9 -9 -9 -8 -8 -7 -7 -7 -7 -6 -6
-9 -10 -10 -11 -11 -11 -11 -11 -12 -12 -12 -13 -13 -13 -13 -13 -13 -13 -13 -13 -13 -12 -12 -12 -11 -11 -10 -10 -10 -10 -9 -9 -9 -8 -8 -7 -7 -7 -6 -6 -6 -6 -6
-10 -10 -10 -11 -11 -11 -11 -12 -12 -12 -12 -13 -13 -14 -14 -13 -13 -13 -13 -13 -13 -12 -11 -11 -10 -10 -10 -10 -9 -9 -9 -9 -8 -7 -7 -6 -6 -6 -6 -6 -6 -6 -6
-10 -10 -10 -11 -11 -11 -11 -11 -11 -12 -12 -13 -13 -13 -13 -13 -13 -13 -12 -12 -12 -12 -11 -10 -10 -10 -9 -9 -9 -8 -8 -8 -7 -7 -6 -6 -6 -6 -6 -6 -6 -6 -6
Wind_Speed
6 6 6 5 5 4 5 6 6 7 8 10 10 11 12 12 13 13 13 14 15 15 15 16 17 17 15 15 15 15 15 16 19 21 21 23 27 25 23 22 22 23 22
5 5 5 4 4 4 5 6 7 8 9 10 10 11 12 13 13 14 14 15 16 17 17 18 18 16 18 17 15 16 16 17 18 22 21 22 26 26 24 24 21 20 21
4 4 4 4 4 5 6 7 8 9 10 10 11 11 12 13 14 14 15 17 17 18 18 18 19 19 19 17 18 18 16 16 17 19 21 20 21 21 23 23 24 21 22
4 3 3 3 4 6 6 7 8 9 10 11 11 12 13 14 14 14 17 18 19 19 19 18 18 19 19 20 18 19 18 20 20 19 19 20 20 23 21 20 20 20 20
3 2 2 4 5 6 7 8 9 9 10 11 12 13 13 13 13 17 18 19 20 20 19 18 18 20 22 20 18 20 21 19 19 19 19 20 21 20 20 20 21 21 21
2 1 3 4 6 7 8 9 9 10 11 12 13 14 15 13 18 22 21 19 19 19 19 19 19 19 21 25 27 27 27 24 21 21 20 22 25 24 21 20 21 21 22
1 2 4 5 7 8 9 10 10 11 12 13 14 15 16 17 20 22 23 20 19 18 19 19 17 18 23 21 25 29 28 29 27 23 24 25 25 24 24 25 23 24 23
1 3 4 6 8 9 10 10 11 12 13 14 15 16 17 17 20 22 24 20 18 18 18 19 20 21 20 24 25 26 25 23 24 22 22 24 24 25 25 25 25 24 24
2 4 5 7 9 10 11 12 12 13 14 14 15 16 17 18 19 21 23 18 16 19 18 19 21 22 26 30 27 27 26 23 24 29 31 30 33 33 27 19 19 18 20
3 5 6 8 9 11 12 13 13 13 14 15 15 16 16 17 19 21 22 15 17 17 18 19 22 24 29 33 27 26 26 25 25 26 26 25 23 23 26 19 16 17 18
4 6 7 8 10 11 12 12 13 13 15 15 16 15 15 15 18 20 22 16 17 19 18 18 18 27 32 35 32 24 26 28 24 23 20 19 18 17 17 16 16 16 17
5 7 8 10 9 9 12 12 13 14 15 16 15 15 12 13 16 19 23 23 24 20 19 18 20 31 35 34 27 26 31 28 18 17 17 17 17 17 17 18 20 20 19
6 8 9 10 10 10 11 13 13 13 12 13 14 14 14 13 15 21 23 26 28 21 19 25 30 32 30 23 24 30 26 17 16 17 18 18 17 18 18 18 18 18 18
8 9 9 10 11 11 10 10 11 12 12 13 14 15 15 15 15 15 17 19 22 20 19 23 28 26 22 23 22 19 16 16 18 17 18 18 18 17 17 16 16 15 14
8 9 9 9 10 11 11 10 12 12 13 15 15 15 16 16 19 27 24 19 20 21 22 18 17 16 17 17 17 17 16 17 17 16 17 18 18 17 17 15 14 13 11
8 8 8 9 10 10 12 12 12 14 18 20 21 20 18 21 28 30 30 30 31 29 22 16 16 16 17 18 18 18 18 17 17 17 17 17 17 17 16 14 12 10 8
8 9 8 9 10 11 11 12 14 14 16 18 19 21 22 26 28 29 29 29 27 25 16 14 15 16 17 17 17 18 18 18 17 17 16 17 16 15 14 12 10 8 6
8 9 9 9 10 11 11 12 13 14 15 14 16 20 23 24 26 27 27 24 17 16 14 15 16 16 17 17 17 17 18 18 17 16 16 16 15 13 12 11 9 9 7
8 7 8 10 10 10 11 12 12 14 14 15 15 16 20 22 23 23 22 14 15 15 15 15 16 16 17 17 17 17 17 17 18 17 15 15 13 12 11 10 9 10 7
7 10 11 10 10 10 11 12 12 13 14 15 15 15 16 17 15 16 15 14 14 15 15 16 16 17 17 17 17 16 17 17 17 15 14 13 12 11 10 10 9 8 6
8 9 12 10 10 10 11 12 13 13 14 14 14 17 22 16 15 15 15 14 14 15 16 16 16 17 16 16 16 17 19 16 15 14 13 12 12 10 9 8 8 7 6
8 9 9 10 10 11 12 13 13 13 14 16 14 16 22 15 13 14 14 15 15 15 15 16 16 16 16 15 16 17 17 16 15 14 13 12 11 10 9 8 7 7 6
9 10 10 11 11 14 14 12 12 13 14 14 14 14 14 14 14 14 15 15 15 15 15 15 16 16 16 16 16 15 15 15 14 14 13 11 10 9 8 8 8 7 6
9 11 11 12 12 12 12 12 12 13 13 14 14 14 14 14 14 15 15 15 15 15 15 16 17 20 24 20 16 15 14 14 14 11 11 10 10 8 8 7 7 7 5
10 10 11 12 12 12 12 12 12 13 13 13 13 14 14 14 14 14 14 14 16 16 19 19 16 17 23 26 21 17 20 22 16 11 9 8 9 8 8 7 6 6 5
10 11 11 10 10 11 11 12 12 13 13 13 13 13 14 14 14 14 14 14 15 16 18 17 19 23 25 20 20 22 23 21 18 16 9 7 8 8 8 6 6 5 6
Wind_Direction
99 88 77 63 47 34 24 11 357 348 342 338 334 329 327 325 324 320 318 317 313 310 308 306 304 303 302 300 299 294 292 290 289 293 295 299 301 299 296 293 291 290 288
97 83 69 54 34 22 14 2 349 342 336 332 326 322 322 321 321 318 316 314 311 309 308 307 305 305 303 301 299 297 296 294 293 295 296 298 297 299 298 298 296 292 289
96 78 61 39 19 9 1 351 341 334 328 325 322 320 319 319 317 314 314 312 309 307 307 306 305 305 303 303 303 300 299 300 298 295 295 296 297 298 301 299 297 293 291
96 71 42 17 5 356 348 338 331 325 321 320 319 317 316 316 313 316 317 312 309 307 305 303 304 304 304 305 303 302 304 303 299 297 296 298 298 299 298 298 297 295 293
106 68 20 358 351 343 336 327 321 316 314 313 312 314 316 315 316 321 316 312 310 307 305 305 304 303 301 300 301 304 304 301 300 300 301 302 300 300 300 299 296 296 293
116 33 0 346 340 333 326 319 313 312 313 313 314 316 316 314 317 315 315 311 308 307 307 307 306 304 304 304 304 302 300 299 300 302 303 301 300 299 299 297 296 295 295
74 5 348 338 329 323 316 312 311 314 314 315 316 316 314 313 315 316 315 312 307 307 308 307 307 306 308 306 306 305 302 298 297 299 300 299 299 298 298 296 293 292 290
14 345 339 329 320 315 312 313 315 315 313 313 314 313 311 310 315 316 316 314 310 307 307 306 305 306 307 310 309 307 304 301 301 302 299 297 295 294 293 292 293 291 286
335 333 329 319 313 312 314 316 316 314 312 313 312 311 310 311 315 317 318 316 310 310 309 306 306 306 308 312 313 310 308 307 308 305 302 298 297 298 296 294 292 291 290
325 319 313 310 309 311 312 312 312 311 310 310 309 309 309 309 312 316 320 315 313 313 310 309 307 309 312 314 315 313 311 311 311 309 307 305 302 299 296 292 293 294 294
309 306 308 310 309 307 307 308 309 309 308 309 310 311 309 309 313 317 320 320 316 313 312 311 311 313 315 316 317 313 310 312 311 309 307 305 303 300 299 297 294 291 291
306 307 308 307 305 302 306 308 310 311 312 313 314 314 313 314 314 316 318 317 315 312 311 311 312 315 317 319 318 314 315 316 311 308 306 305 306 305 303 300 295 289 282
309 306 303 303 303 304 306 310 313 315 314 315 315 315 317 318 317 317 317 317 317 315 310 311 314 316 319 318 316 317 318 315 311 309 307 307 306 303 301 298 295 290 283
300 300 301 304 307 310 309 309 314 315 314 314 315 316 317 317 317 320 319 318 318 316 314 315 317 317 319 318 318 318 317 312 311 308 307 306 306 305 303 302 300 299 297
293 297 302 305 307 310 309 309 309 305 305 309 311 312 313 314 314 316 317 317 318 316 321 319 319 321 321 320 320 318 317 315 314 313 311 310 309 308 306 306 302 302 303
292 301 306 307 309 311 312 310 302 298 302 303 303 304 306 306 311 315 317 318 319 322 324 319 319 319 319 320 320 318 317 316 316 315 312 311 311 310 310 312 314 316 322
289 299 304 306 309 312 312 313 314 313 308 304 304 306 307 310 314 316 318 320 322 325 322 318 318 318 318 317 316 315 314 315 315 313 313 313 312 312 316 322 329 336 343
291 295 300 305 308 308 309 310 311 312 314 314 312 311 312 316 317 317 321 324 323 324 321 318 318 317 317 315 314 313 313 314 315 315 314 313 314 318 324 332 338 345 345
296 301 307 306 306 305 307 307 307 308 309 311 313 315 319 321 319 319 326 325 321 320 320 319 318 316 315 313 313 313 313 313 313 315 314 315 318 323 329 333 336 343 348
296 299 306 306 305 306 307 307 307 307 309 311 314 317 322 322 321 324 326 322 320 319 319 318 317 314 314 313 313 313 314 314 314 315 316 317 321 325 327 329 333 337 342
300 302 304 302 303 305 305 305 305 307 309 310 310 314 319 320 318 320 321 320 320 319 318 317 315 314 314 314 314 314 314 313 313 315 316 318 322 323 324 324 327 330 335
298 300 302 303 303 304 304 304 306 307 308 309 311 314 317 318 316 316 317 318 318 317 317 315 313 313 313 315 315 314 313 312 314 316 318 320 322 322 323 326 331 334 343
296 299 302 303 304 304 305 304 305 306 308 309 310 312 314 315 315 316 316 317 317 317 317 315 314 313 315 316 315 313 311 311 312 314 319 320 321 323 326 330 334 339 349
296 300 304 305 305 304 305 306 306 306 307 308 309 310 311 313 314 314 316 315 317 316 316 316 314 314 317 321 319 316 313 314 317 319 318 313 317 322 326 330 333 341 346
303 304 304 304 304 304 305 304 304 306 306 307 307 308 311 313 313 313 315 316 317 317 317 317 316 318 321 321 321 321 322 328 333 331 320 314 317 320 326 331 339 348 1
304 303 303 303 302 302 302 302 302 303 304 305 307 309 310 311 311 313 315 317 320 319 317 317 317 320 321 322 321 325 330 335 339 341 336 323 327 335 342 349 358 13 24
Height
1487 1486 1485 1484 1482 1479 1477 1475 1471 1468 1465 1461 1457 1453 1448 1443 1438 1432 1427 1422 1416 1411 1407 1401 1396 1391 1385 1379 1374 1368 1362 1356 1347 1336 1330 1322 1316 1311 1306 1302 1296 1290 1284
1485 1484 1483 1481 1479 1477 1474 1471 1468 1465 1461 1457 1453 1448 1443 1438 1432 1427 1421 1416 1411 1405 1400 1395 1389 1384 1378 1372 1366 1360 1354 1348 1341 1331 1323 1316 1309 1303 1297 1291 1286 1280 1275
1483 1482 1480 1478 1476 1474 1471 1468 1465 1462 1458 1454 1449 1444 1438 1432 1426 1421 1415 1410 1405 1399 1394 1388 1382 1377 1371 1365 1359 1353 1347 1340 1334 1326 1316 1309 1301 1295 1289 1283 1277 1271 1265
1480 1479 1477 1475 1473 1470 1468 1465 1461 1458 1454 1449 1444 1438 1432 1426 1420 1415 1409 1403 1398 1392 1387 1381 1376 1370 1364 1358 1352 1346 1340 1333 1326 1318 1309 1302 1295 1288 1282 1275 1267 1262 1256
1477 1476 1474 1472 1469 1467 1464 1461 1458 1454 1449 1444 1438 1432 1427 1421 1415 1409 1402 1396 1390 1385 1379 1374 1368 1363 1357 1351 1346 1339 1333 1326 1318 1311 1303 1295 1288 1281 1275 1268 1261 1253 1246
1474 1472 1470 1468 1466 1463 1461 1457 1453 1449 1444 1438 1432 1426 1420 1415 1409 1402 1395 1389 1383 1378 1372 1366 1360 1355 1349 1344 1339 1333 1327 1320 1311 1304 1296 1289 1281 1275 1268 1261 1254 1246 1236
1470 1469 1467 1465 1463 1460 1457 1453 1448 1443 1438 1432 1427 1420 1414 1408 1401 1394 1388 1382 1377 1371 1365 1359 1353 1348 1343 1336 1330 1324 1318 1312 1306 1300 1290 1282 1274 1267 1261 1253 1246 1238 1229
1467 1466 1464 1462 1459 1456 1452 1448 1443 1438 1432 1426 1420 1414 1407 1401 1394 1387 1381 1376 1371 1365 1360 1354 1348 1341 1336 1330 1322 1314 1307 1301 1296 1290 1283 1274 1266 1259 1253 1246 1237 1228 1219
1465 1463 1461 1459 1456 1452 1448 1444 1438 1432 1426 1420 1414 1407 1400 1394 1388 1382 1377 1371 1365 1359 1354 1348 1342 1336 1330 1323 1315 1305 1297 1290 1285 1279 1272 1264 1257 1250 1244 1236 1228 1221 1210
1462 1460 1458 1455 1452 1448 1444 1439 1433 1427 1420 1414 1407 1401 1395 1389 1383 1378 1373 1367 1360 1353 1347 1341 1335 1329 1322 1316 1308 1299 1289 1281 1274 1265 1259 1252 1245 1238 1234 1229 1222 1214 1205
1460 1458 1455 1452 1449 1445 1439 1434 1428 1421 1414 1408 1402 1396 1390 1384 1378 1373 1368 1363 1356 1348 1341 1334 1328 1322 1315 1308 1301 1293 1284 1276 1267 1258 1250 1242 1236 1230 1225 1219 1214 1207 1199
1457 1455 1452 1449 1445 1440 1435 1429 1423 1416 1409 1402 1396 1390 1385 1379 1374 1368 1362 1357 1351 1344 1335 1328 1321 1315 1308 1300 1292 1285 1277 1269 1261 1252 1244 1236 1229 1222 1215 1209 1203 1197 1191
1454 1452 1449 1445 1440 1435 1429 1423 1417 1411 1405 1398 1391 1385 1380 1374 1369 1363 1357 1351 1345 1338 1330 1323 1315 1308 1300 1292 1285 1278 1271 1263 1256 1248 1239 1231 1223 1215 1207 1200 1193 1187 1182
1451 1448 1444 1440 1435 1430 1424 1418 1412 1407 1400 1394 1388 1381 1375 1369 1364 1358 1351 1345 1338 1331 1324 1316 1309 1302 1295 1287 1280 1272 1266 1259 1252 1243 1234 1226 1217 1209 1201 1194 1187 1180 1175
1446 1443 1439 1434 1429 1424 1418 1413 1407 1402 1397 1391 1385 1379 1372 1365 1359 1354 1348 1340 1333 1326 1318 1310 1303 1296 1289 1281 1275 1268 1261 1254 1246 1238 1229 1220 1212 1204 1196 1188 1182 1176 1171
1441 1437 1433 1428 1423 1418 1412 1407 1401 1397 1392 1387 1381 1375 1368 1363 1355 1349 1342 1335 1328 1321 1314 1306 1299 1293 1286 1278 1271 1263 1256 1248 1241 1233 1225 1216 1208 1200 1192 1185 1179 1174 1169
1436 1432 1427 1423 1418 1412 1407 1401 1395 1390 1386 1381 1375 1370 1364 1357 1350 1343 1337 1330 1323 1317 1310 1303 1297 1290 1283 1275 1268 1260 1251 1244 1236 1228 1221 1213 1205 1198 1191 1185 1179 1174 1169
1431 1427 1422 1417 1412 1407 1402 1397 1391 1385 1379 1374 1370 1364 1358 1352 1345 1338 1332 1325 1318 1312 1307 1300 1294 1287 1279 1272 1264 1256 1247 1239 1232 1224 1217 1210 1203 1197 1191 1186 1180 1176 1171
1426 1421 1417 1412 1407 1403 1398 1393 1387 1382 1376 1370 1364 1358 1353 1346 1339 1333 1328 1321 1315 1309 1303 1297 1290 1283 1275 1268 1260 1252 1244 1236 1228 1221 1215 1208 1203 1198 1192 1187 1182 1178 1174
1420 1416 1412 1407 1402 1398 1393 1388 1383 1378 1372 1366 1360 1354 1347 1340 1334 1329 1323 1318 1312 1306 1299 1293 1286 1279 1271 1264 1256 1248 1240 1233 1226 1219 1213 1207 1202 1198 1192 1187 1183 1179 1176
1415 1410 1406 1401 1397 1393 1388 1384 1379 1374 1368 1362 1356 1350 1345 1338 1332 1326 1320 1314 1308 1302 1295 1289 1282 1274 1267 1260 1252 1244 1237 1230 1224 1218 1212 1207 1202 1197 1192 1188 1184 1180 1177
1409 1405 1400 1396 1392 1388 1384 1380 1375 1369 1363 1357 1351 1345 1340 1335 1329 1323 1317 1311 1304 1299 1292 1286 1278 1271 1264 1257 1249 1242 1235 1229 1223 1217 1212 1207 1202 1197 1192 1188 1185 1182 1179
1403 1399 1395 1391 1387 1383 1379 1374 1369 1364 1358 1352 1347 1341 1336 1330 1325 1319 1313 1306 1300 1294 1288 1282 1275 1267 1261 1254 1248 1241 1235 1229 1223 1218 1212 1206 1202 1197 1193 1190 1187 1184 1182
1398 1394 1390 1386 1382 1378 1373 1369 1364 1358 1353 1348 1342 1337 1332 1326 1321 1315 1308 1302 1296 1291 1285 1278 1272 1265 1258 1252 1246 1240 1234 1229 1223 1218 1212 1208 1203 1199 1196 1192 1190 1187 1185
1393 1389 1385 1381 1377 1373 1368 1363 1358 1353 1348 1343 1338 1333 1328 1322 1316 1310 1305 1299 1293 1287 1282 1276 1269 1263 1256 1250 1244 1238 1233 1228 1223 1218 1214 1210 1206 1202 1198 1195 1193 1191 1189
1387 1383 1380 1376 1371 1367 1363 1358 1353 1348 1343 1338 1334 1328 1323 1318 1312 1307 1302 1296 1291 1285 1279 1273 1267 1261 1255 1249 1243 1238 1233 1228 1224 1220 1216 1212 1209 1205 1202 1199 1196 1194 1193